User: anonymous   Login
Location: ActonStarParty
(42.4766°N, 71.4538°W)
Time: 02:15:44
(UTC-04:00)
Language:

Cosmos 1300 - Orbit

View from above orbital plane
View from above orbital plane
View from above satellite
View from above satellite

Ground track
Ground track

The orbit data is extracted from the following two-line orbital elements,

1 12785U 81082A   15148.60488368  .00002806  00000-0  15113-3 0  9994
2 12785 082.5054 094.2307 0001626 046.5327 040.6839 15.14440239838143
Epoch (UTC): 28 May 2015 14:31:01
Eccentricity: 0.0001626
inclination: 82.5054°
perigee height: 521 km
apogee height: 524 km
right ascension of ascending node: 94.2307°
argument of perigee: 46.5327°
revolutions per day: 15.14440239
mean anomaly at epoch: 40.6839°
orbit number at epoch: 83814

The dashed part of the orbit path shows where the satellite is in the earth's shadow,  

DLR